Content
SEND FEEDBACK

Daily
Averages
Monthly
Summary
United States of America

OTTERVILLE, MISSOURI


Home > North America > United States > Missouri
Elevation: 223 meters     Latitude: 38 45N     Longitude: 093 02W

WEATHER
 
SELECT A DAY
Number of Records: 185,861;   Date Range: 7/1/96 - 7/7/14
 
SHARE

PRINT THIS DATA

[ ← Previous Day ]
WEATHER ALMANAC - 23 JANUARY, 2013
[ Next Day → ]
[ °F ]   °C
Weather ElementAverageHighLow
Temperature-1.1 °C8.3 °C (2:53 pm)-9.4 °C (3:53 am)
Dewpoint-8.4 °C-4.4 °C (1:53 pm)-15 °C (1:53 am)
Humidity59.5 %77 % (3:53 am)40 % (3:40 pm)
Barometer1025.7 hPa1030.5 hPa (11:53 pm)1022 hPa (3:40 pm)
Wind Speed10.8 km/h24.1 km/h (10:53 pm)
Wind Gust37 km/h (10:53 pm)
Weather ElementAverage
Visibility15.8 km
Wind DirectionWSW (230.9 °)

Weather ElementTotal
Precipitation---
Heating Degree Days18.9 (Base 18.3)
Averaged from 23 records on 23 January, 2013
WEATHER CONDITIONS BREAKOUT
WIND DIRECTION BREAKOUT
WEATHER BY HOUR - 23 JANUARY, 2013
[ °F ]   °C
Local TimeTemperatureDewpointHumidityBarometerVisibilityWind DirectionWind SpeedGust SpeedPrecipitationEventsConditions
1:53 AM-8.3 °C-15 °C59 %1026.8 hPa16.1 kmEast (90°)5.6 km/hClear
2:53 AM-8.9 °C-13.3 °C71 %1026.8 hPa16.1 kmEast (100°)7.4 km/hClear
3:53 AM-9.4 °C-12.8 °C77 %1025.7 hPa16.1 kmESE (110°)7.4 km/hClear
4:53 AM-9.4 °C-13.3 °C74 %1025.7 hPa16.1 kmESE (110°)7.4 km/hClear
5:53 AM-9.4 °C-12.8 °C77 %1025.7 hPa16.1 kmSE (140°)7.4 km/hClear
6:53 AM-9.4 °C-13.3 °C74 %1025.7 hPa16.1 kmSE (140°)7.4 km/hClear
7:53 AM-8.3 °C-12.8 °C71 %1025.7 hPa16.1 kmCalmClear
8:53 AM-5.6 °C-10 °C72 %1025.4 hPa16.1 kmSouth (180°)5.6 km/hClear
9:53 AM-0.6 °C-7.8 °C59 %1025.1 hPa16.1 kmSW (220°)9.3 km/hClear
10:53 AM2.8 °C-6.1 °C52 %1025.1 hPa16.1 kmWSW (240°)11.1 km/hClear
11:53 AM5.6 °C-5 °C47 %1024 hPa16.1 kmWest (280°)14.8 km/hClear
12:53 PM7.2 °C-5 °C42 %1023.4 hPa16.1 kmWNW (290°)11.1 km/hClear
1:53 PM7.8 °C-4.4 °C42 %1022.7 hPa16.1 kmNW (320°)13 km/hClear
2:53 PM8.3 °C-4.4 °C41 %1022.7 hPa16.1 kmNW (310°)14.8 km/hClear
3:40 PM8 °C-5 °C40 %1022 hPa8 kmNNW (330°)14.8 km/hHaze
4:53 PM5 °C-5 °C49 %1023.4 hPa16.1 kmNNW (330°)11.1 km/hClear
5:53 PM3.3 °C-5.6 °C53 %1024.4 hPa16.1 kmNNW (340°)7.4 km/hClear
6:53 PM2.2 °C-5.6 °C57 %1025.4 hPa16.1 kmNNW (330°)9.3 km/hClear
7:53 PM0 °C-5 °C69 %1026.1 hPa16.1 kmNorth (350°)11.1 km/hClear
8:53 PM0.6 °C-6.1 °C61 %1027.8 hPa16.1 kmNorth (360°)16.7 km/hClear
9:53 PM-0.6 °C-6.7 °C64 %1028.8 hPa16.1 kmNorth (360°)14.8 km/hClear
10:53 PM-1.7 °C-8.9 °C58 %1029.8 hPa16.1 kmNorth (360°)24.1 km/h37 km/hClear
11:53 PM-3.3 °C-10 °C60 %1030.5 hPa16.1 kmNNE (20°)14.8 km/hClear
Hourly data recorded from KDMO, located 0 kilometers away from Otterville, Missouri







STORIES FROM OUR PARTNERS